Regional Weather Roundup
Issued by NWS

Home | Current Version | Previous Version | Graphics & Text | Print | Product List | Glossary On
Versions: 1 2 3 4 5 6 7 8 9 10 11 12 13 14 15 16 17 18 19 20 21 22 23 24 25 26 27 28 29 30 31 32 33 34 35 36 37 38 39 40 41 42 43 44 45 46 47 48 49 50
000
ASUS43 KMKX 090111
RWRWI

WISCONSIN REGIONAL WEATHER ROUNDUP
NATIONAL WEATHER SERVICE MILWAUKEE/SULLIVAN WI
700 PM CST THU DEC 08 2016

NOTE: "FAIR" INDICATES FEW OR NO CLOUDS BELOW 12,000 FEET WITH NO
SIGNIFICANT WEATHER AND/OR OBSTRUCTIONS TO VISIBILITY.

WIZ001-002-006>008-014>016-023>028-090200-
NORTHWEST WISCONSIN

CITY           SKY/WX    TMP DP  RH WIND       PRES   REMARKS
SUPERIOR ARPT  CLOUDY    22  12  66 NW10      30.42R WCI  11
ASHLAND        CLOUDY    22  15  75 NW8       30.37R WCI  12
HAYWARD        FLURRIES  22  13  68 W8        30.36R WCI  12
SIREN          CLEAR     19  13  74 W5        30.42R WCI  13
CUMBERLAND     FLURRIES  21  14  73 NW9       30.38R WCI  11
RICE LAKE      FLURRIES  22  15  72 NW7       30.40R WCI  14
CHETEK         CLOUDY    23  16  74 NW3       30.39R
LADYSMITH      CLOUDY    23  16  75 NW12      30.37R WCI  11
EAU CLAIRE     FLURRIES  23  17  78 W9        30.39R WCI  13
MENOMONIE      FLURRIES  23  17  78 W12       30.41R WCI  12
NEW RICHMOND   FLURRIES  22  15  75 W10G16    30.43S WCI  11
OSCEOLA        FLURRIES  23  16  75 W10       30.47S WCI  12
$$

WIZ003>005-009-010-017-018-090200-
NORTH CENTRAL WISCONSIN

CITY           SKY/WX    TMP DP  RH WIND       PRES   REMARKS
MANITOWISH WTR LGT SNOW  20  19  98 NW6       30.25S WCI  12
ARBOR VITAE    FLURRIES  22  18  86 NW10G16   30.25R WCI  11
WOODRUFF       FLURRIES  22  18  86 NW10G16   30.25R WCI  11
RHINELANDER    CLOUDY    22  17  81 NW13G21   30.25R WCI  10
EAGLE RIVER    LGT SNOW  21  17  83 NW13G20   30.22S WCI   9
LAND O LAKES   LGT SNOW  22  18  86 NW12      30.24R WCI  10
PHILLIPS       CLOUDY    20  14  77 NW8       30.30R WCI  10
TOMAHAWK       CLOUDY    22  14  73 NW10G20   30.28R WCI  11
MEDFORD        FLURRIES  21  14  73 NW10      30.30R WCI  10
MERRILL        CLOUDY    22  16  77 NW9       30.29R WCI  12
$$

WIZ029-030-035-036-043>047-090200-
CENTRAL WISCONSIN

CITY           SKY/WX    TMP DP  RH WIND       PRES   REMARKS
WAUSAU         PTCLDY    22  16  78 NW12G18   30.29R WCI  10
MOSINEE        PTCLDY    21  18  86 W12G17    30.30R WCI   9
MARSHFIELD     MOCLDY    22  14  71 NW13      30.31R WCI  10
STEVENS POINT  MOCLDY    20  14  77 W6        30.31S WCI  12
WAUPACA        CLEAR     25  16  68 W6        30.31R WCI  18
WAUTOMA        CLEAR     22  15  75 W13       30.34R WCI  10
WISC RAPIDS    CLOUDY    22  16  78 NW8       30.34R WCI  12
CAMP DOUGLAS   CLOUDY    23  18  80 NW9       30.36S WCI  13
$$

WIZ011>013-019>022-031-037>040-048>050-090200-
NORTHEAST WISCONSIN

CITY           SKY/WX    TMP DP  RH WIND       PRES   REMARKS
ANTIGO         PTCLDY    21  15  79 NW9       30.25R WCI  10
SHAWANO        PTCLDY    27  20  75 W5        30.29R WCI  21
OCONTO         PTCLDY    24  19  83 W7        30.26R WCI  16
STURGEON BAY   PTCLDY    29  20  69 NW9       30.24R WCI  20
GREEN BAY      PTCLDY    28  19  69 W13G22    30.28R WCI  17
MANITOWOC      CLOUDY    27  18  69 W15       30.27R WCI  15
APPLETON       PTCLDY    23  14  68 W13       30.27R WCI  11
CLINTONVILLE   MOCLDY    25  18  74 W8        30.29R WCI  16
OSHKOSH        CLOUDY    23  15  71 W10       30.30R WCI  12
$$

WIZ032>034-041-042-053>061-090200-
SOUTHWEST WISCONSIN

CITY           SKY/WX    TMP DP  RH WIND       PRES   REMARKS
LA CROSSE      CLOUDY    26  16  65 NW13      30.42R WCI  15
SPARTA         FLURRIES  24  19  81 NW9       30.40R WCI  14
VIROQUA        CLOUDY    21  17  83 NW10      30.37R WCI  10
BOSCOBEL       FLURRIES  25  17  72 W7        30.43R WCI  17
PRAIRIE DU CHI FLURRIES  23  15  72 W12       30.45R WCI  11
PLATTEVILLE    MOCLDY    22  19  87 W14G20    30.41S WCI   9
$$

WIZ056-057-062-063-064-067-068-090200-
SOUTH CENTRAL WISCONSIN

CITY           SKY/WX    TMP DP  RH WIND       PRES   REMARKS
REEDSBURG      FLURRIES  23  17  80 W9        30.37R WCI  13
BARABOO/DELLS  CLOUDY    22  16  77 W8        30.35S WCI  13
LONE ROCK      CLOUDY    24  17  74 W9        30.40S WCI  14
MINERAL POINT  LGT SNOW  23  21  93 W10       30.38R WCI  12
MADISON        FLURRIES  23  16  74 W9        30.36R WCI  13
MIDDLETON      CLOUDY    24  18  77 W10       30.37R WCI  14
WATERTOWN      PTCLDY    22  17  79 W8        30.34R WCI  13
MONROE         FLURRIES  23  19  86 W10       30.37S WCI  12
JANESVILLE     FLURRIES  25  19  80 W8        30.38R WCI  16
$$

WIZ051-052-058>065-066-070>072-090200-
SOUTHEAST WISCONSIN

CITY           SKY/WX    TMP DP  RH WIND       PRES   REMARKS
MILWAUKEE      PTCLDY    25  15  66 W14       30.32R WCI  13
WAUKESHA       CLEAR     21  16  79 W15G22    30.33R WCI   8
MILWAUKEE/TIMM CLEAR     23  16  74 W13G18    30.32R WCI  11
RACINE         CLEAR     23  15  71 W12G20    30.33R WCI  12
BURLINGTON     CLEAR     27  22  80 W10G18    30.34S WCI  17
KENOSHA        CLEAR     23  15  71 W16       30.33R WCI  10
FOND DU LAC    MOCLDY    24  14  65 W15       30.30R WCI  11
SHEBOYGAN      MOCLDY    26  16  65 NW18G25   30.28R WCI  13
WEST BEND      CLEAR     23  19  86 W9        30.30R WCI  13
JUNEAU         PTCLDY    22  16  78 W8        30.32S WCI  12
$$

LSZ147-162-090200-
LAKE SUPERIOR

STATION/POSITION TIME  TEMP    WIND        PRES    WAVE
                       AIR SEA DIR/SP/G            HT/PER
                 (UTC) (F)     (DEG/KT/KT) (MB)    (FT/S)
DEVILS ISLAND    0000   24     310/ 19/ 21 1029.0R
PORT WING        0040   26     330/ 17/ 19 1028.8R
SAXON HARBOR     0040   27     340/ 21/ 26 1027.1R
$$

LMZ867-665-643>646-090200-
LAKE MICHIGAN

STATION/POSITION TIME  TEMP    WIND        PRES    WAVE
                       AIR SEA DIR/SP/G            HT/PER
                 (UTC) (F)     (DEG/KT/KT) (MB)    (FT/S)
CHAMBERS ISLAND  0040   30     300/  7/ 15 1023.0R
NORTHPORT PIER   0040   32     310/ 20/ 27 1022.7R
SISTER BAY       0050   32     330/ 21/ 24   N/A
ALGOMA LAKESHORE 0051          340/ 12/ 15   N/A
KEWAUNEE LAKESHO 0048   28     300/  8/ 11 1023.7R
SHEBOYGAN LAKESH 0100   27     290/ 18/ 21 1025.9R
PORT WASHINGTON  0030   25     280/ 10/ 17 1026.8R
MILWAUKEE LAKESH 0050   25     280/ 16/ 20   N/A
KENOSHA   LAKESH 0000   24     270/ 16/ 23 1026.8
$$

TC  - TEMPERATURE IN CELSIUS
VSB - VISIBILITY IN STATUTE MILES
WCI - WIND CHILL INDEX
HX  - HEAT INDEX





USA.gov is the U.S. government's official web portal to all federal, state and local government web resources and services.